sat.trackr.live / text

‹ back to catalog

STARLINK-35773

NORAD 67042 · 2025-294N

PAYLOAD ACTIVE UNKNOWN

§ Identity

Operator
Country
US
Launch date
2025-12-11
Launch site
AFETR
Launch vehicle
Mass (kg)
RCS (m²)

Purposes: comms

External: N2YO · Heavens-Above · Gunter

§ Orbital elements

Epoch: 2026-09-20T18:25:56.457120Z

Period
94.27 min
Inclination
43.0031°
Eccentricity
0.0001313
Mean motion
15.27592833 rev/d
Perigee alt
482.1 km
Apogee alt
483.9 km
Semi-major
6,861.1 km
B*
3.9565e-4
RAAN
16.4004°
Arg perigee
276.0886°
Mean anomaly
83.9816°
Rev number
4,463

§ Raw data

STARLINK-357731 67042U 25294N   26263.76801455  .00010645  00000+0  39565-3 0  99922 67042  43.0031  16.4004 0001313 276.0886  83.9816 15.27592833 44639

JSON: /api/v1/satellites/67042 · /tle

For live sub-satellite position, see the globe view (requires WebGL).

§ Visibility from observer

Set your observer location to see the next 7 days of passes ≥ 10°. The values pass through the URL so the page stays shareable.

No JS? Fill the form by hand. The geolocation button needs JavaScript.